User: anonymous   Login
Location: Unspecified
(0.0000°N, 0.0000°E)
Time: 22:16:42
(UTC+00:00)
Language:

OBJECT H - Orbit

View from above orbital plane
View from above orbital plane
View from above satellite
View from above satellite

Ground track
Ground track

The orbit data is extracted from the following two-line orbital elements,

1 43669U 18083H   18344.50333503  .00001005  00000-0  55060-4 0  9996
2 43669  97.5218   5.0312 0012530 117.2700 242.9810 15.16454860  6408
Epoch (UTC): 10 December 2018 12:04:48
Eccentricity: 0.0012530
inclination: 97.5218°
perigee height: 508 km
apogee height: 525 km
right ascension of ascending node: 5.0312°
argument of perigee: 117.2700°
revolutions per day: 15.16454860
mean anomaly at epoch: 242.9810°
orbit number at epoch: 640

The dashed part of the orbit path shows where the satellite is in the earth's shadow,  

DLR